Погода в Плещеево

Россия / Ярославская область     57°19′26″N   39°43′46″E
темп.,
°C
ветер,
м/с
пор.,
м/с
влажн.,
%
обл.,
%
осадки,
мм/ч
давл.,
гПа
погр.,
м
24 июля, сб
сб2400:00+11сз3108679 0.1 1008215
03:00+10сз2391100 0.1 100952
06:00+12ссз2590100 0.4 1010224
09:00+13с357284 0.5 1012388
12:00+20ссз553648 0.0 10122202
15:00+20сз553528 0.0 10132323
18:00+19сз45354 0.0 10152237
21:00+13зсз33595 0.0 101625
25 июля, вс
вс2500:00+10з237113 0.0 101824
03:00+9зюз337475 0.0 101933
06:00+13юз2660100 0.0 1020180
09:00+19з454142 0.0 1020628
12:00+21зюз34359 0.0 10211588
15:00+23з553194 0.0 10202466
18:00+22з353332 0.0 10202359
21:00+17юз225399 0.0 102125
26 июля, пн
пн2600:00+17зюз225375 0.0 102217
03:00+16з2453100 0.0 102271
06:00+16зюз2557100 0.0 1023142
09:00+20зюз3450100 0.0 1023419
12:00+24зюз443835 0.0 10231358
15:00+24ссз243873 0.0 10221693
18:00+21ссв1147100 0.0 102114
21:00+18ююз2359100 0.0 102127
27 июля, вт
вт2700:00+18з376335 0.0 1022130
03:00+15зсз34775 0.0 102252
06:00+16зсз237227 0.0 102288
09:00+23зсз34467 0.0 1022627
12:00+28зсз463536 0.0 10212709
15:00+26зсз354095 0.0 1020485
18:00+24зюз474732 0.1 1019347
21:00+17св22766 0.9 101912
28 июля, ср
ср2800:00+16зюз22818 0.0 101924
03:00+15зюз22826 0.0 101911
06:00+18зюз368150 0.0 1018131
09:00+24зюз35515 0.0 1016624
12:00+29з5636100 0.0 10142721
15:00+27зюз4741100 0.0 10131956
18:00+27юз57385 0.1 10111023
21:00+23юз4850100 0.1 1010201